Time,TemperatureF,DewpointF,PressureIn,WindDirection,WindDirectionDegrees,WindSpeedMPH,WindSpeedGustMPH,Humidity,HourlyPrecipIn,Conditions,Clouds,dailyrainin,SoftwareType,DateUTC
2013-05-11 00:03:00,71.0,68.0,30.07,SW,218,0.0,1.0,90,0.00,,,0.01,,2013-05-11 04:03:00,
2013-05-11 00:12:00,71.0,68.0,30.07,SW,218,0.0,1.0,90,0.00,,,0.01,,2013-05-11 04:12:00,
2013-05-11 00:23:00,70.0,67.0,30.07,SSW,209,0.0,3.0,90,0.00,,,0.01,,2013-05-11 04:23:00,
2013-05-11 00:33:00,70.0,67.0,30.07,East,90,0.0,0.0,91,0.00,,,0.01,,2013-05-11 04:33:00,
2013-05-11 00:43:00,70.0,68.0,30.08,East,90,0.0,0.0,92,0.00,,,0.01,,2013-05-11 04:43:00,
2013-05-11 00:52:00,70.0,68.0,30.08,East,90,0.0,0.0,92,0.00,,,0.01,,2013-05-11 04:52:00,
2013-05-11 01:02:00,70.0,68.0,30.08,East,90,0.0,0.0,92,0.00,,,0.01,,2013-05-11 05:02:00,
2013-05-11 01:12:00,70.0,68.0,30.08,East,90,0.0,0.0,92,0.00,,,0.01,,2013-05-11 05:12:00,
2013-05-11 01:22:00,70.0,68.0,30.08,East,90,0.0,0.0,93,0.00,,,0.01,,2013-05-11 05:22:00,
2013-05-11 01:32:00,70.0,68.0,30.08,South,187,0.0,1.0,93,0.00,,,0.01,,2013-05-11 05:32:00,
2013-05-11 01:42:00,71.0,69.0,30.07,SSW,202,0.0,1.0,92,0.00,,,0.01,,2013-05-11 05:42:00,
2013-05-11 01:52:00,71.0,69.0,30.07,SSW,202,0.0,1.0,92,0.00,,,0.01,,2013-05-11 05:52:00,
2013-05-11 02:02:00,71.0,68.0,30.07,East,90,0.0,0.0,91,0.00,,,0.01,,2013-05-11 06:02:00,
2013-05-11 02:12:00,71.0,68.0,30.07,East,90,0.0,0.0,91,0.00,,,0.01,,2013-05-11 06:12:00,
2013-05-11 02:21:00,72.0,69.0,30.06,East,90,0.0,0.0,90,0.00,,,0.01,,2013-05-11 06:21:00,
2013-05-11 02:32:00,72.0,69.0,30.06,South,175,0.0,2.0,90,0.00,,,0.01,,2013-05-11 06:32:00,
2013-05-11 02:42:00,72.0,69.0,30.05,East,90,0.0,0.0,90,0.00,,,0.01,,2013-05-11 06:42:00,
2013-05-11 02:52:00,72.0,69.0,30.05,East,90,0.0,0.0,90,0.00,,,0.01,,2013-05-11 06:52:00,
2013-05-11 03:02:00,71.0,68.0,30.05,East,90,0.0,0.0,91,0.00,,,0.01,,2013-05-11 07:02:00,
2013-05-11 03:12:00,71.0,68.0,30.05,East,90,0.0,0.0,91,0.00,,,0.01,,2013-05-11 07:12:00,
2013-05-11 03:21:00,71.0,69.0,30.04,East,90,0.0,0.0,92,0.00,,,0.01,,2013-05-11 07:21:00,
2013-05-11 03:32:00,70.0,68.0,30.03,East,90,0.0,0.0,93,0.00,,,0.01,,2013-05-11 07:32:00,
2013-05-11 03:42:00,70.0,68.0,30.03,East,90,0.0,0.0,93,0.00,,,0.01,,2013-05-11 07:42:00,
2013-05-11 03:52:00,70.0,68.0,30.03,East,90,0.0,0.0,94,0.00,,,0.01,,2013-05-11 07:52:00,
2013-05-11 04:02:00,70.0,68.0,30.03,East,90,0.0,0.0,94,0.00,,,0.01,,2013-05-11 08:02:00,
2013-05-11 04:12:00,70.0,68.0,30.03,East,90,0.0,0.0,94,0.00,,,0.01,,2013-05-11 08:12:00,
2013-05-11 04:21:00,69.0,68.0,30.03,East,90,0.0,0.0,95,0.00,,,0.01,,2013-05-11 08:21:00,
2013-05-11 04:32:00,69.0,68.0,30.03,East,90,0.0,0.0,95,0.00,,,0.01,,2013-05-11 08:32:00,
2013-05-11 04:42:00,68.0,67.0,30.03,East,90,0.0,0.0,96,0.00,,,0.01,,2013-05-11 08:42:00,
2013-05-11 04:52:00,68.0,67.0,30.03,East,90,0.0,0.0,96,0.00,,,0.01,,2013-05-11 08:52:00,
2013-05-11 05:01:00,69.0,68.0,30.03,East,90,0.0,0.0,97,0.00,,,0.01,,2013-05-11 09:01:00,
2013-05-11 05:11:00,69.0,68.0,30.03,East,90,0.0,0.0,97,0.00,,,0.01,,2013-05-11 09:11:00,
2013-05-11 05:21:00,69.0,68.0,30.02,East,90,0.0,0.0,97,0.00,,,0.01,,2013-05-11 09:21:00,
2013-05-11 05:32:00,69.0,68.0,30.02,East,90,0.0,0.0,97,0.00,,,0.01,,2013-05-11 09:32:00,
2013-05-11 05:42:00,69.0,68.0,30.02,East,90,0.0,0.0,97,0.00,,,0.01,,2013-05-11 09:42:00,
2013-05-11 05:53:00,69.0,68.0,30.02,East,90,0.0,0.0,97,0.00,,,0.01,,2013-05-11 09:53:00,
2013-05-11 06:03:00,68.0,67.0,30.03,East,90,0.0,0.0,97,0.00,,,0.01,,2013-05-11 10:03:00,
2013-05-11 06:12:00,68.0,67.0,30.03,East,90,0.0,0.0,97,0.00,,,0.01,,2013-05-11 10:12:00,
2013-05-11 06:22:00,68.0,67.0,30.03,East,90,0.0,0.0,97,0.00,,,0.01,,2013-05-11 10:22:00,
2013-05-11 06:33:00,68.0,67.0,30.03,East,90,0.0,0.0,98,0.00,,,0.01,,2013-05-11 10:33:00,
2013-05-11 06:42:00,68.0,67.0,30.04,East,90,0.0,0.0,98,0.00,,,0.01,,2013-05-11 10:42:00,
2013-05-11 06:53:00,68.0,67.0,30.04,East,90,0.0,0.0,98,0.00,,,0.01,,2013-05-11 10:53:00,
2013-05-11 07:02:00,68.0,67.0,30.04,East,90,0.0,0.0,98,0.00,,,0.01,,2013-05-11 11:02:00,
2013-05-11 07:12:00,68.0,67.0,30.04,East,90,0.0,0.0,98,0.00,,,0.01,,2013-05-11 11:12:00,
2013-05-11 07:22:00,68.0,67.0,30.05,East,90,0.0,0.0,98,0.00,,,0.01,,2013-05-11 11:22:00,
2013-05-11 07:32:00,68.0,67.0,30.05,East,90,0.0,0.0,98,0.00,,,0.01,,2013-05-11 11:32:00,
2013-05-11 07:42:00,69.0,69.0,30.05,East,90,0.0,0.0,99,0.00,,,0.01,,2013-05-11 11:42:00,
2013-05-11 07:51:00,69.0,69.0,30.05,East,90,0.0,0.0,99,0.00,,,0.01,,2013-05-11 11:51:00,
2013-05-11 08:01:00,69.0,69.0,30.06,SE,138,0.0,1.0,99,0.00,,,0.01,,2013-05-11 12:01:00,
2013-05-11 08:11:00,69.0,69.0,30.06,SE,138,0.0,1.0,99,0.00,,,0.01,,2013-05-11 12:11:00,
2013-05-11 08:22:00,71.0,70.0,30.06,SE,145,0.0,1.0,98,0.00,,,0.01,,2013-05-11 12:22:00,
2013-05-11 08:32:00,71.0,70.0,30.06,SW,229,0.0,1.0,98,0.00,,,0.01,,2013-05-11 12:32:00,
2013-05-11 08:42:00,72.0,71.0,30.06,SE,142,0.0,1.0,97,0.00,,,0.01,,2013-05-11 12:42:00,
2013-05-11 08:52:00,72.0,71.0,30.06,SE,142,0.0,1.0,97,0.00,,,0.01,,2013-05-11 12:52:00,
2013-05-11 09:02:00,73.0,71.0,30.06,West,272,0.0,1.0,95,0.00,,,0.01,,2013-05-11 13:02:00,
2013-05-11 09:11:00,73.0,71.0,30.06,West,272,0.0,1.0,95,0.00,,,0.01,,2013-05-11 13:11:00,
2013-05-11 09:21:00,75.0,73.0,30.07,SSE,152,0.0,2.0,92,0.00,,,0.01,,2013-05-11 13:21:00,
2013-05-11 09:32:00,76.0,73.0,30.06,SSW,199,0.0,2.0,90,0.00,,,0.01,,2013-05-11 13:32:00,
2013-05-11 09:42:00,77.0,73.0,30.06,SW,234,0.0,4.0,88,0.00,,,0.01,,2013-05-11 13:42:00,
2013-05-11 09:52:00,77.0,73.0,30.06,SW,234,0.0,4.0,88,0.00,,,0.01,,2013-05-11 13:52:00,
2013-05-11 10:02:00,78.0,73.0,30.06,WSW,250,0.0,3.0,85,0.00,,,0.01,,2013-05-11 14:02:00,
2013-05-11 10:11:00,78.0,73.0,30.06,WSW,250,0.0,3.0,85,0.00,,,0.01,,2013-05-11 14:11:00,
2013-05-11 10:21:00,79.0,74.0,30.07,South,178,0.0,2.0,84,0.00,,,0.01,,2013-05-11 14:21:00,
2013-05-11 10:32:00,80.0,74.0,30.07,SE,142,0.0,4.0,81,0.00,,,0.01,,2013-05-11 14:32:00,
2013-05-11 10:42:00,80.0,73.0,30.06,WSW,244,1.0,5.0,80,0.00,,,0.01,,2013-05-11 14:42:00,
2013-05-11 10:52:00,80.0,73.0,30.06,WSW,244,1.0,5.0,80,0.00,,,0.01,,2013-05-11 14:52:00,
2013-05-11 11:01:00,81.0,73.0,30.06,WSW,248,2.0,6.0,78,0.00,,,0.01,,2013-05-11 15:01:00,
2013-05-11 11:11:00,81.0,73.0,30.06,SSW,195,1.0,6.0,78,0.00,,,0.01,,2013-05-11 15:11:00,
2013-05-11 11:21:00,81.0,73.0,30.06,SSW,195,1.0,6.0,78,0.00,,,0.01,,2013-05-11 15:21:00,
2013-05-11 11:32:00,83.0,74.0,30.06,SE,146,1.0,5.0,74,0.00,,,0.01,,2013-05-11 15:32:00,
2013-05-11 11:43:00,84.0,74.0,30.05,South,180,1.0,5.0,71,0.00,,,0.01,,2013-05-11 15:43:00,
2013-05-11 11:53:00,84.0,74.0,30.05,South,180,1.0,5.0,71,0.00,,,0.01,,2013-05-11 15:53:00,
2013-05-11 12:03:00,84.0,74.0,30.05,WSW,252,1.0,5.0,72,0.00,,,0.01,,2013-05-11 16:03:00,
2013-05-11 12:12:00,84.0,74.0,30.05,WSW,252,1.0,5.0,72,0.00,,,0.01,,2013-05-11 16:12:00,
2013-05-11 12:23:00,85.0,74.0,30.04,SSE,168,1.0,4.0,69,0.00,,,0.01,,2013-05-11 16:23:00,
2013-05-11 12:33:00,86.0,74.0,30.04,SSE,151,1.0,7.0,68,0.00,,,0.01,,2013-05-11 16:33:00,
2013-05-11 12:42:00,87.0,73.0,30.03,WSW,250,1.0,5.0,64,0.00,,,0.01,,2013-05-11 16:42:00,
2013-05-11 12:53:00,87.0,73.0,30.03,WSW,250,1.0,5.0,64,0.00,,,0.01,,2013-05-11 16:53:00,
2013-05-11 13:02:00,87.0,73.0,30.03,WSW,258,2.0,6.0,64,0.00,,,0.01,,2013-05-11 17:02:00,
2013-05-11 13:12:00,87.0,73.0,30.03,WSW,258,2.0,6.0,64,0.00,,,0.01,,2013-05-11 17:12:00,
2013-05-11 13:22:00,87.0,72.0,30.03,West,267,2.0,5.0,62,0.00,,,0.01,,2013-05-11 17:22:00,
2013-05-11 13:32:00,88.0,72.0,30.03,SW,216,2.0,7.0,60,0.00,,,0.01,,2013-05-11 17:32:00,
2013-05-11 13:42:00,88.0,72.0,30.03,WSW,254,2.0,6.0,59,0.00,,,0.01,,2013-05-11 17:42:00,
2013-05-11 13:52:00,88.0,72.0,30.03,WSW,254,2.0,6.0,59,0.00,,,0.01,,2013-05-11 17:52:00,
2013-05-11 14:01:00,88.0,72.0,30.02,SW,219,1.0,4.0,59,0.00,,,0.01,,2013-05-11 18:01:00,
2013-05-11 14:12:00,88.0,72.0,30.02,SW,219,1.0,4.0,59,0.00,,,0.01,,2013-05-11 18:12:00,
2013-05-11 14:21:00,89.0,72.0,30.01,SSE,167,2.0,7.0,57,0.00,,,0.01,,2013-05-11 18:21:00,
2013-05-11 14:32:00,89.0,70.0,30.01,SW,229,1.0,4.0,54,0.00,,,0.01,,2013-05-11 18:32:00,
2013-05-11 14:42:00,90.0,70.0,30.00,SSE,159,1.0,7.0,52,0.00,,,0.01,,2013-05-11 18:42:00,
2013-05-11 14:52:00,90.0,70.0,30.00,SSE,159,1.0,7.0,52,0.00,,,0.01,,2013-05-11 18:52:00,
2013-05-11 15:02:00,89.0,70.0,30.00,WSW,255,2.0,6.0,54,0.00,,,0.01,,2013-05-11 19:02:00,
2013-05-11 15:11:00,89.0,70.0,30.00,WSW,255,2.0,6.0,54,0.00,,,0.01,,2013-05-11 19:11:00,
2013-05-11 15:21:00,90.0,70.0,29.99,ESE,119,1.0,6.0,52,0.00,,,0.01,,2013-05-11 19:21:00,
2013-05-11 15:32:00,90.0,69.0,29.98,SSW,209,1.0,7.0,51,0.00,,,0.01,,2013-05-11 19:32:00,
2013-05-11 15:42:00,89.0,70.0,29.97,WSW,252,1.0,6.0,53,0.00,,,0.01,,2013-05-11 19:42:00,
2013-05-11 15:53:00,89.0,70.0,29.97,WSW,252,1.0,6.0,53,0.00,,,0.01,,2013-05-11 19:53:00,
2013-05-11 16:02:00,87.0,71.0,29.98,West,271,0.0,3.0,60,0.00,,,0.01,,2013-05-11 20:02:00,
2013-05-11 16:12:00,87.0,71.0,29.98,West,271,0.0,3.0,60,0.00,,,0.01,,2013-05-11 20:12:00,
2013-05-11 16:22:00,85.0,71.0,29.97,SE,125,0.0,1.0,63,0.00,,,0.01,,2013-05-11 20:22:00,
2013-05-11 16:32:00,85.0,72.0,29.97,East,90,0.0,0.0,65,0.00,,,0.01,,2013-05-11 20:32:00,
2013-05-11 16:42:00,83.0,73.0,29.97,NE,47,0.0,1.0,71,0.00,,,0.01,,2013-05-11 20:42:00,
2013-05-11 16:52:00,83.0,73.0,29.97,NE,47,0.0,1.0,71,0.00,,,0.01,,2013-05-11 20:52:00,
2013-05-11 17:02:00,81.0,73.0,29.98,WNW,282,3.0,7.0,77,0.11,,,0.12,,2013-05-11 21:02:00,
2013-05-11 17:11:00,81.0,73.0,29.98,WNW,282,3.0,7.0,77,0.11,,,0.12,,2013-05-11 21:11:00,
2013-05-11 17:22:00,75.0,72.0,29.99,NNE,19,0.0,1.0,91,0.43,,,0.44,,2013-05-11 21:22:00,
2013-05-11 17:33:00,73.0,71.0,30.00,SE,133,0.0,3.0,95,0.49,,,0.50,,2013-05-11 21:33:00,
2013-05-11 17:43:00,73.0,71.0,30.00,SE,133,0.0,3.0,95,0.49,,,0.50,,2013-05-11 21:43:00,
2013-05-11 17:52:00,73.0,72.0,30.00,NE,43,0.0,1.0,96,0.53,,,0.54,,2013-05-11 21:52:00,
2013-05-11 18:02:00,71.0,70.0,29.99,ESE,116,0.0,2.0,97,0.57,,,0.69,,2013-05-11 22:02:00,
2013-05-11 18:13:00,71.0,70.0,29.99,ESE,116,0.0,2.0,97,0.57,,,0.69,,2013-05-11 22:13:00,
2013-05-11 18:23:00,71.0,70.0,29.98,East,90,0.0,0.0,98,0.24,,,0.69,,2013-05-11 22:23:00,
2013-05-11 18:33:00,72.0,71.0,29.98,NW,304,0.0,1.0,98,0.20,,,0.69,,2013-05-11 22:33:00,
2013-05-11 18:42:00,72.0,71.0,29.98,NW,304,0.0,1.0,98,0.20,,,0.69,,2013-05-11 22:42:00,
2013-05-11 18:52:00,72.0,71.0,30.00,ESE,121,0.0,2.0,98,0.14,,,0.69,,2013-05-11 22:52:00,
2013-05-11 19:02:00,72.0,72.0,30.01,East,90,0.0,0.0,99,0.09,,,0.69,,2013-05-11 23:02:00,
2013-05-11 19:12:00,72.0,72.0,30.01,East,90,0.0,0.0,99,0.09,,,0.69,,2013-05-11 23:12:00,
2013-05-11 19:22:00,73.0,72.0,30.01,East,90,0.0,0.0,98,0.00,,,0.69,,2013-05-11 23:22:00,
2013-05-11 19:32:00,73.0,72.0,30.02,SSE,153,0.0,1.0,98,0.00,,,0.69,,2013-05-11 23:32:00,
2013-05-11 19:42:00,73.0,72.0,30.02,ESE,122,0.0,1.0,98,0.00,,,0.70,,2013-05-11 23:42:00,
2013-05-11 19:52:00,73.0,72.0,30.02,ESE,122,0.0,1.0,98,0.00,,,0.70,,2013-05-11 23:52:00,
2013-05-11 20:01:00,73.0,72.0,30.02,ESE,116,0.0,2.0,98,0.00,,,0.70,,2013-05-12 00:01:00,
2013-05-11 20:12:00,73.0,72.0,30.02,ESE,116,0.0,2.0,98,0.00,,,0.70,,2013-05-12 00:12:00,
2013-05-11 20:21:00,72.0,71.0,30.02,SE,132,0.0,1.0,98,0.00,,,0.70,,2013-05-12 00:21:00,
2013-05-11 20:32:00,71.0,70.0,30.03,SE,140,0.0,2.0,98,0.00,,,0.70,,2013-05-12 00:32:00,
2013-05-11 20:42:00,71.0,70.0,30.03,WSW,249,0.0,1.0,98,0.00,,,0.70,,2013-05-12 00:42:00,
2013-05-11 20:52:00,71.0,70.0,30.03,WSW,249,0.0,1.0,98,0.00,,,0.70,,2013-05-12 00:52:00,
2013-05-11 21:01:00,70.0,69.0,30.04,SE,124,0.0,1.0,98,0.00,,,0.70,,2013-05-12 01:01:00,
2013-05-11 21:11:00,70.0,69.0,30.04,SE,124,0.0,1.0,98,0.00,,,0.70,,2013-05-12 01:11:00,
2013-05-11 21:21:00,70.0,69.0,30.04,South,182,0.0,4.0,98,0.00,,,0.69,,2013-05-12 01:21:00,
2013-05-11 21:32:00,70.0,69.0,30.04,SE,130,0.0,1.0,98,0.00,,,0.69,,2013-05-12 01:32:00,
2013-05-11 21:42:00,70.0,70.0,30.04,SE,124,0.0,3.0,99,0.00,,,0.69,,2013-05-12 01:42:00,
2013-05-11 21:52:00,70.0,70.0,30.04,SE,124,0.0,3.0,99,0.00,,,0.69,,2013-05-12 01:52:00,
2013-05-11 22:01:00,70.0,70.0,30.04,East,90,0.0,0.0,99,0.00,,,0.69,,2013-05-12 02:01:00,
2013-05-11 22:11:00,70.0,70.0,30.04,East,90,0.0,0.0,99,0.00,,,0.69,,2013-05-12 02:11:00,
2013-05-11 22:22:00,70.0,70.0,30.04,SW,221,0.0,1.0,99,0.00,,,0.69,,2013-05-12 02:22:00,
2013-05-11 22:32:00,70.0,70.0,30.04,East,90,0.0,0.0,99,0.00,,,0.69,,2013-05-12 02:32:00,
2013-05-11 22:42:00,70.0,70.0,30.04,East,90,0.0,0.0,99,0.00,,,0.69,,2013-05-12 02:42:00,
2013-05-11 22:52:00,70.0,70.0,30.04,East,90,0.0,0.0,99,0.00,,,0.69,,2013-05-12 02:52:00,
2013-05-11 23:01:00,69.0,69.0,30.03,SW,234,0.0,1.0,99,0.00,,,0.69,,2013-05-12 03:01:00,
2013-05-11 23:11:00,69.0,69.0,30.03,East,90,0.0,0.0,99,0.00,,,0.69,,2013-05-12 03:11:00,
2013-05-11 23:22:00,69.0,69.0,30.03,East,90,0.0,0.0,99,0.00,,,0.69,,2013-05-12 03:22:00,
2013-05-11 23:33:00,69.0,69.0,30.04,East,90,0.0,0.0,99,0.00,,,0.69,,2013-05-12 03:33:00,
2013-05-11 23:43:00,69.0,69.0,30.04,East,90,0.0,0.0,99,0.00,,,0.69,,2013-05-12 03:43:00,
2013-05-11 23:53:00,69.0,69.0,30.04,East,90,0.0,0.0,99,0.00,,,0.69,,2013-05-12 03:53:00,